Time,TemperatureF,DewpointF,PressureIn,WindDirection,WindDirectionDegrees,WindSpeedMPH,WindSpeedGustMPH,Humidity,HourlyPrecipIn,Conditions,Clouds,dailyrainin,SolarRadiationWatts/m^2,SoftwareType,DateUTC
2013-02-05 00:05:00,39.8,26.6,30.00,SSW,195,0.0,1.0,59,0.00,,SCT,0.00,0.0,WeatherDisplay:10.37,2013-02-05 05:05:00,
2013-02-05 00:10:00,39.8,26.6,30.00,SSW,195,0.0,1.0,59,0.00,,SCT,0.00,0.0,WeatherDisplay:10.37,2013-02-05 05:10:00,
2013-02-05 00:15:00,39.7,26.9,30.00,SSW,195,0.0,1.0,60,0.00,,SCT,0.00,0.0,WeatherDisplay:10.37,2013-02-05 05:15:00,
2013-02-05 00:20:00,39.7,26.9,29.99,SSW,195,0.0,0.0,60,0.00,,SCT,0.00,0.0,WeatherDisplay:10.37,2013-02-05 05:20:00,
2013-02-05 00:25:00,39.6,26.8,29.99,SSW,195,0.0,0.0,60,0.00,,SCT,0.00,0.0,WeatherDisplay:10.37,2013-02-05 05:25:00,
2013-02-05 00:30:00,39.6,26.8,29.99,SSW,195,0.0,0.0,60,0.00,,SCT,0.00,0.0,WeatherDisplay:10.37,2013-02-05 05:30:00,
2013-02-05 00:35:00,39.5,26.8,29.98,SSW,195,0.0,0.0,60,0.00,,SCT,0.00,0.0,WeatherDisplay:10.37,2013-02-05 05:35:00,
2013-02-05 00:40:00,39.4,27.5,29.98,SSW,195,0.0,0.0,62,0.00,,SCT,0.00,0.0,WeatherDisplay:10.37,2013-02-05 05:40:00,
2013-02-05 00:45:00,39.3,27.4,29.99,SSW,195,0.0,0.0,62,0.00,,SCT,0.00,0.0,WeatherDisplay:10.37,2013-02-05 05:45:00,
2013-02-05 00:50:00,39.2,27.3,29.98,SSW,195,0.0,0.0,62,0.00,,SCT,0.00,0.0,WeatherDisplay:10.37,2013-02-05 05:50:00,
2013-02-05 00:55:00,39.1,27.1,29.98,SSW,195,0.0,0.0,62,0.00,,SCT,0.00,0.0,WeatherDisplay:10.37,2013-02-05 05:55:00,
2013-02-05 01:00:00,38.9,27.4,29.98,SSW,195,0.0,1.0,63,0.00,,SCT,0.00,0.0,WeatherDisplay:10.37,2013-02-05 06:00:00,
2013-02-05 01:05:00,38.7,27.6,29.98,SSW,195,0.0,1.0,64,0.00,,SCT,0.00,0.0,WeatherDisplay:10.37,2013-02-05 06:05:00,
2013-02-05 01:10:00,38.5,27.4,29.98,SSW,195,0.0,0.0,64,0.00,,SCT,0.00,0.0,WeatherDisplay:10.37,2013-02-05 06:10:00,
2013-02-05 01:15:00,38.3,27.6,29.97,SSW,195,0.0,0.0,65,0.00,,SCT,0.00,0.0,WeatherDisplay:10.37,2013-02-05 06:15:00,
2013-02-05 01:20:00,38.2,27.5,29.98,SSW,195,0.0,0.0,65,0.00,,SCT,0.00,0.0,WeatherDisplay:10.37,2013-02-05 06:20:00,
2013-02-05 01:25:00,38.0,27.6,29.97,SSW,195,0.0,1.0,66,0.00,,SCT,0.00,0.0,WeatherDisplay:10.37,2013-02-05 06:25:00,
2013-02-05 01:30:00,37.9,27.5,29.97,SSW,195,0.0,1.0,66,0.00,,SCT,0.00,0.0,WeatherDisplay:10.37,2013-02-05 06:30:00,
2013-02-05 01:35:00,37.8,27.4,29.97,SSW,195,0.0,1.0,66,0.00,,SCT,0.00,0.0,WeatherDisplay:10.37,2013-02-05 06:35:00,
2013-02-05 01:40:00,37.7,27.4,29.97,SSW,195,0.0,0.0,66,0.00,,SCT,0.00,0.0,WeatherDisplay:10.37,2013-02-05 06:40:00,
2013-02-05 01:45:00,37.7,27.7,29.97,SSW,195,0.0,0.0,67,0.00,,SCT,0.00,0.0,WeatherDisplay:10.37,2013-02-05 06:45:00,
2013-02-05 01:50:00,37.7,28.1,29.96,SSW,195,0.0,0.0,68,0.00,,SCT,0.00,0.0,WeatherDisplay:10.37,2013-02-05 06:50:00,
2013-02-05 01:55:00,37.7,28.1,29.96,SSW,195,0.0,0.0,68,0.00,,SCT,0.00,0.0,WeatherDisplay:10.37,2013-02-05 06:55:00,
2013-02-05 02:00:00,37.7,28.1,29.96,SSW,195,0.0,0.0,68,0.00,,SCT,0.00,0.0,WeatherDisplay:10.37,2013-02-05 07:00:00,
2013-02-05 02:05:00,37.7,28.1,29.96,SSW,195,0.0,1.0,68,0.00,,SCT,0.00,0.0,WeatherDisplay:10.37,2013-02-05 07:05:00,
2013-02-05 02:10:00,37.7,28.4,29.96,SSW,195,0.0,0.0,69,0.00,,SCT,0.00,0.0,WeatherDisplay:10.37,2013-02-05 07:10:00,
2013-02-05 02:15:00,37.8,28.5,29.96,SSW,195,0.0,0.0,69,0.00,,SCT,0.00,0.0,WeatherDisplay:10.37,2013-02-05 07:15:00,
2013-02-05 02:20:00,37.8,28.5,29.96,SSW,195,0.0,0.0,69,0.00,,SCT,0.00,0.0,WeatherDisplay:10.37,2013-02-05 07:20:00,
2013-02-05 02:25:00,37.8,28.5,29.96,SSW,195,0.0,0.0,69,0.00,,SCT,0.00,0.0,WeatherDisplay:10.37,2013-02-05 07:25:00,
2013-02-05 02:30:00,37.8,28.5,29.95,SSW,195,0.0,1.0,69,0.00,,SCT,0.00,0.0,WeatherDisplay:10.37,2013-02-05 07:30:00,
2013-02-05 02:35:00,37.8,28.5,29.95,SSW,195,0.0,1.0,69,0.00,,SCT,0.00,0.0,WeatherDisplay:10.37,2013-02-05 07:35:00,
2013-02-05 02:40:00,37.8,28.5,29.95,SSW,195,0.0,2.0,69,0.00,,SCT,0.00,0.0,WeatherDisplay:10.37,2013-02-05 07:40:00,
2013-02-05 02:45:00,37.9,28.6,29.95,SSW,195,0.0,2.0,69,0.00,,SCT,0.00,0.0,WeatherDisplay:10.37,2013-02-05 07:45:00,
2013-02-05 02:50:00,38.0,28.7,29.95,SSW,195,0.0,2.0,69,0.00,,SCT,0.00,0.0,WeatherDisplay:10.37,2013-02-05 07:50:00,
2013-02-05 02:55:00,38.2,28.9,29.95,SSW,195,0.0,3.0,69,0.00,,SCT,0.00,0.0,WeatherDisplay:10.37,2013-02-05 07:55:00,
2013-02-05 03:00:00,38.4,29.1,29.95,SSW,195,0.0,3.0,69,0.00,,SCT,0.00,0.0,WeatherDisplay:10.37,2013-02-05 08:00:00,
2013-02-05 03:05:00,38.6,29.3,29.95,SSW,195,0.0,2.0,69,0.00,,SCT,0.00,0.0,WeatherDisplay:10.37,2013-02-05 08:05:00,
2013-02-05 03:10:00,38.7,29.1,29.95,SSW,195,0.0,2.0,68,0.00,,SCT,0.00,0.0,WeatherDisplay:10.37,2013-02-05 08:10:00,
2013-02-05 03:20:00,39.1,29.4,29.95,SSW,195,0.0,3.0,68,0.00,,SCT,0.00,0.0,WeatherDisplay:10.37,2013-02-05 08:20:00,
2013-02-05 03:25:00,39.2,29.2,29.95,SSW,195,0.0,3.0,67,0.00,,SCT,0.00,0.0,WeatherDisplay:10.37,2013-02-05 08:25:00,
2013-02-05 03:30:00,39.3,29.3,29.94,SSW,195,0.0,2.0,67,0.00,,SCT,0.00,0.0,WeatherDisplay:10.37,2013-02-05 08:30:00,
2013-02-05 03:35:00,39.4,29.4,29.94,SSW,195,0.0,1.0,67,0.00,,SCT,0.00,0.0,WeatherDisplay:10.37,2013-02-05 08:35:00,
2013-02-05 03:40:00,39.5,29.5,29.94,SSW,195,0.0,2.0,67,0.00,,SCT,0.00,0.0,WeatherDisplay:10.37,2013-02-05 08:40:00,
2013-02-05 03:45:00,39.7,29.6,29.94,SSW,195,0.0,5.0,67,0.00,,SCT,0.00,0.0,WeatherDisplay:10.37,2013-02-05 08:45:00,
2013-02-05 03:50:00,39.7,29.7,29.93,SSW,195,0.0,3.0,67,0.00,,SCT,0.00,0.0,WeatherDisplay:10.37,2013-02-05 08:50:00,
2013-02-05 03:55:00,39.8,29.7,29.93,SSW,195,0.0,1.0,67,0.00,,SCT,0.00,0.0,WeatherDisplay:10.37,2013-02-05 08:55:00,
2013-02-05 04:00:00,39.9,29.5,29.93,SSW,195,0.0,1.0,66,0.00,,SCT,0.00,0.0,WeatherDisplay:10.37,2013-02-05 09:00:00,
2013-02-05 04:05:00,39.9,29.5,29.93,SSW,195,0.0,2.0,66,0.00,,SCT,0.00,0.0,WeatherDisplay:10.37,2013-02-05 09:05:00,
2013-02-05 04:10:00,39.9,29.4,29.93,SSW,195,0.0,1.0,66,0.00,,SCT,0.00,0.0,WeatherDisplay:10.37,2013-02-05 09:10:00,
2013-02-05 04:15:00,39.8,29.4,29.93,SSW,195,0.0,1.0,66,0.00,,SCT,0.00,0.0,WeatherDisplay:10.37,2013-02-05 09:15:00,
2013-02-05 04:20:00,39.8,29.3,29.93,SSW,195,0.0,1.0,66,0.00,,SCT,0.00,0.0,WeatherDisplay:10.37,2013-02-05 09:20:00,
2013-02-05 04:25:00,39.7,29.2,29.93,SSW,195,0.0,4.0,66,0.00,,SCT,0.00,0.0,WeatherDisplay:10.37,2013-02-05 09:25:00,
2013-02-05 04:30:00,39.5,29.1,29.94,SSW,195,0.0,2.0,66,0.00,,SCT,0.00,0.0,WeatherDisplay:10.37,2013-02-05 09:30:00,
2013-02-05 04:35:00,39.4,29.0,29.94,SSW,195,0.0,1.0,66,0.00,,SCT,0.00,0.0,WeatherDisplay:10.37,2013-02-05 09:35:00,
2013-02-05 04:40:00,39.2,28.8,29.94,SSW,195,0.0,1.0,66,0.00,,SCT,0.00,0.0,WeatherDisplay:10.37,2013-02-05 09:40:00,
2013-02-05 04:45:00,39.0,29.0,29.94,SSW,195,0.0,1.0,67,0.00,,SCT,0.00,0.0,WeatherDisplay:10.37,2013-02-05 09:45:00,
2013-02-05 04:50:00,38.8,28.8,29.94,SSW,196,0.0,0.0,67,0.00,,SCT,0.00,0.0,WeatherDisplay:10.37,2013-02-05 09:50:00,
2013-02-05 04:55:00,38.5,28.5,29.95,SSW,196,0.0,0.0,67,0.00,,SCT,0.00,0.0,WeatherDisplay:10.37,2013-02-05 09:55:00,
2013-02-05 05:00:00,38.3,28.3,29.95,SSW,196,0.0,0.0,67,0.00,,SCT,0.00,0.0,WeatherDisplay:10.37,2013-02-05 10:00:00,
2013-02-05 05:05:00,38.0,28.0,29.94,SSW,195,0.0,0.0,67,0.00,,SCT,0.00,0.0,WeatherDisplay:10.37,2013-02-05 10:05:00,
2013-02-05 05:10:00,37.7,27.7,29.95,SSW,195,0.0,0.0,67,0.00,,SCT,0.00,0.0,WeatherDisplay:10.37,2013-02-05 10:10:00,
2013-02-05 05:15:00,37.4,27.8,29.94,SSW,195,0.0,0.0,68,0.00,,SCT,0.00,0.0,WeatherDisplay:10.37,2013-02-05 10:15:00,
2013-02-05 05:20:00,36.8,28.0,29.94,SSW,195,0.0,0.0,70,0.00,,SCT,0.00,0.0,WeatherDisplay:10.37,2013-02-05 10:20:00,
2013-02-05 05:25:00,36.5,27.6,29.94,SSW,195,0.0,0.0,70,0.00,,SCT,0.00,0.0,WeatherDisplay:10.37,2013-02-05 10:25:00,
2013-02-05 05:30:00,36.2,27.7,29.95,SSW,195,0.0,0.0,71,0.00,,SCT,0.00,0.0,WeatherDisplay:10.37,2013-02-05 10:30:00,
2013-02-05 05:35:00,35.9,27.8,29.94,SSW,195,0.0,0.0,72,0.00,,SCT,0.00,0.0,WeatherDisplay:10.37,2013-02-05 10:35:00,
2013-02-05 05:40:00,35.6,27.5,29.95,SSW,195,0.0,0.0,72,0.00,,SCT,0.00,0.0,WeatherDisplay:10.37,2013-02-05 10:40:00,
2013-02-05 05:45:00,35.4,27.3,29.95,SSW,195,0.0,0.0,72,0.00,,SCT,0.00,0.0,WeatherDisplay:10.37,2013-02-05 10:45:00,
2013-02-05 05:50:00,35.2,27.4,29.95,SSW,196,0.0,0.0,73,0.00,,SCT,0.00,0.0,WeatherDisplay:10.37,2013-02-05 10:50:00,
2013-02-05 05:55:00,35.0,27.5,29.95,SSW,195,0.0,0.0,74,0.00,,SCT,0.00,0.0,WeatherDisplay:10.37,2013-02-05 10:55:00,
2013-02-05 06:00:00,34.6,27.5,29.95,SSW,195,0.0,0.0,75,0.00,,SCT,0.00,0.0,WeatherDisplay:10.37,2013-02-05 11:00:00,
2013-02-05 06:05:00,34.4,27.6,29.95,SSW,195,0.0,0.0,76,0.00,,SCT,0.00,0.0,WeatherDisplay:10.37,2013-02-05 11:05:00,
2013-02-05 06:10:00,34.3,27.2,29.95,SSW,195,0.0,0.0,75,0.00,,SCT,0.00,0.0,WeatherDisplay:10.37,2013-02-05 11:10:00,
2013-02-05 06:20:00,34.1,27.6,29.94,SSW,196,0.0,0.0,77,0.00,,SCT,0.00,0.0,WeatherDisplay:10.37,2013-02-05 11:20:00,
2013-02-05 06:25:00,33.9,27.5,29.95,SSW,195,0.0,0.0,77,0.00,,SCT,0.00,0.0,WeatherDisplay:10.37,2013-02-05 11:25:00,
2013-02-05 06:30:00,33.9,27.4,29.95,SSW,195,0.0,0.0,77,0.00,,SCT,0.00,0.0,WeatherDisplay:10.37,2013-02-05 11:30:00,
2013-02-05 06:40:00,33.7,27.6,29.95,SSW,195,0.0,0.0,78,0.00,,SCT,0.00,0.0,WeatherDisplay:10.37,2013-02-05 11:40:00,
2013-02-05 06:45:00,33.7,27.6,29.95,SSW,195,0.0,0.0,78,0.00,,SCT,0.00,0.0,WeatherDisplay:10.37,2013-02-05 11:45:00,
2013-02-05 06:50:00,33.6,27.5,29.95,SSW,195,0.0,0.0,78,0.00,,SCT,0.00,0.0,WeatherDisplay:10.37,2013-02-05 11:50:00,
2013-02-05 06:55:00,33.5,27.4,29.95,SSW,195,0.0,1.0,78,0.00,,SCT,0.00,0.0,WeatherDisplay:10.37,2013-02-05 11:55:00,
2013-02-05 07:00:00,33.4,27.3,29.95,SSW,195,0.0,0.0,78,0.00,,SCT,0.00,0.0,WeatherDisplay:10.37,2013-02-05 12:00:00,
2013-02-05 07:05:00,33.4,27.3,29.96,SSW,195,0.0,0.0,78,0.00,,SCT,0.00,0.0,WeatherDisplay:10.37,2013-02-05 12:05:00,
2013-02-05 07:15:00,33.2,27.4,29.96,SSW,195,0.0,1.0,79,0.00,,SCT,0.00,0.0,WeatherDisplay:10.37,2013-02-05 12:15:00,
2013-02-05 07:20:00,33.0,27.5,29.96,SSW,195,0.0,1.0,80,0.00,,SCT,0.00,0.0,WeatherDisplay:10.37,2013-02-05 12:20:00,
2013-02-05 07:25:00,32.9,27.7,29.97,SSW,195,0.0,0.0,81,0.00,,SCT,0.00,5.0,WeatherDisplay:10.37,2013-02-05 12:25:00,
2013-02-05 07:30:00,32.8,27.6,29.97,SSW,195,0.0,1.0,81,0.00,,SCT,0.00,7.0,WeatherDisplay:10.37,2013-02-05 12:30:00,
2013-02-05 07:35:00,32.8,27.6,29.96,SSW,195,0.0,1.0,81,0.00,,SCT,0.00,19.0,WeatherDisplay:10.37,2013-02-05 12:35:00,
2013-02-05 07:40:00,32.7,27.8,29.96,SSW,195,0.0,0.0,82,0.00,,SCT,0.00,19.0,WeatherDisplay:10.37,2013-02-05 12:40:00,
2013-02-05 07:45:00,32.8,27.9,29.96,SSW,195,0.0,0.0,82,0.00,,SCT,0.00,53.0,WeatherDisplay:10.37,2013-02-05 12:45:00,
2013-02-05 07:50:00,32.8,27.9,29.97,SSW,195,2.0,3.0,82,0.00,,SCT,0.00,70.0,WeatherDisplay:10.37,2013-02-05 12:50:00,
2013-02-05 08:00:00,33.2,28.6,29.98,SSW,195,0.0,0.0,83,0.00,,SCT,0.00,32.0,WeatherDisplay:10.37,2013-02-05 13:00:00,
2013-02-05 08:05:00,33.4,29.1,29.98,SSW,195,0.0,0.0,84,0.00,,SCT,0.00,35.0,WeatherDisplay:10.37,2013-02-05 13:05:00,
2013-02-05 08:10:00,33.7,29.3,29.97,SSW,195,0.0,1.0,84,0.00,,SCT,0.00,37.0,WeatherDisplay:10.37,2013-02-05 13:10:00,
2013-02-05 08:15:00,33.8,30.6,29.97,SSW,194,0.0,0.0,88,0.00,,SCT,0.00,32.0,WeatherDisplay:10.37,2013-02-05 13:15:00,
2013-02-05 08:20:00,34.0,29.7,29.98,SSW,194,0.0,0.0,84,0.00,,SCT,0.00,35.0,WeatherDisplay:10.37,2013-02-05 13:20:00,
2013-02-05 08:25:00,34.2,29.9,29.98,SSW,194,0.0,0.0,84,0.00,,SCT,0.00,44.0,WeatherDisplay:10.37,2013-02-05 13:25:00,
2013-02-05 08:30:00,34.4,30.1,29.98,SSW,194,0.0,1.0,84,0.00,,SCT,0.00,53.0,WeatherDisplay:10.37,2013-02-05 13:30:00,
2013-02-05 08:35:00,34.7,30.4,29.98,SSW,194,0.0,0.0,84,0.00,SCT,SCT,0.00,56.0,WeatherDisplay:10.37,2013-02-05 13:35:00,
2013-02-05 08:40:00,35.0,30.7,29.98,SSW,194,0.0,0.0,84,0.00,CLR,SCT,0.00,67.0,WeatherDisplay:10.37,2013-02-05 13:40:00,
2013-02-05 08:45:00,35.3,30.9,29.98,SSW,194,0.0,0.0,84,0.00,CLR,SCT,0.00,51.0,WeatherDisplay:10.37,2013-02-05 13:45:00,
2013-02-05 08:50:00,35.6,30.9,29.97,SSW,194,0.0,0.0,83,0.00,CLR,SCT,0.00,65.0,WeatherDisplay:10.37,2013-02-05 13:50:00,
2013-02-05 08:55:00,35.9,31.2,29.97,SSW,194,0.0,0.0,83,0.00,CLR,SCT,0.00,62.0,WeatherDisplay:10.37,2013-02-05 13:55:00,
2013-02-05 09:00:00,36.1,31.2,29.98,SSW,194,0.0,1.0,82,0.00,CLR,SCT,0.00,70.0,WeatherDisplay:10.37,2013-02-05 14:00:00,
2013-02-05 09:05:00,36.4,31.4,29.97,SSW,194,0.0,1.0,82,0.00,CLR,SCT,0.00,72.0,WeatherDisplay:10.37,2013-02-05 14:05:00,
2013-02-05 09:10:00,36.8,31.5,29.98,SSW,194,0.0,1.0,81,0.00,FEW,SCT,0.00,79.0,WeatherDisplay:10.37,2013-02-05 14:10:00,
2013-02-05 09:15:00,37.2,31.9,29.98,SSW,194,1.0,3.0,81,0.00,FEW,SCT,0.00,116.0,WeatherDisplay:10.37,2013-02-05 14:15:00,
2013-02-05 09:20:00,37.7,32.1,29.98,SSW,194,0.0,4.0,80,0.00,CLR,SCT,0.00,146.0,WeatherDisplay:10.37,2013-02-05 14:20:00,
2013-02-05 09:25:00,38.1,32.2,29.98,SSW,194,0.0,3.0,79,0.00,CLR,SCT,0.00,116.0,WeatherDisplay:10.37,2013-02-05 14:25:00,
2013-02-05 09:30:00,38.6,32.3,29.97,SSW,194,1.0,3.0,78,0.00,CLR,SCT,0.00,139.0,WeatherDisplay:10.37,2013-02-05 14:30:00,
2013-02-05 09:35:00,39.0,32.4,29.97,SSW,194,2.0,6.0,77,0.00,CLR,SCT,0.00,114.0,WeatherDisplay:10.37,2013-02-05 14:35:00,
2013-02-05 09:40:00,39.5,32.2,29.98,SSW,196,1.0,5.0,75,0.00,FEW,SCT,0.00,114.0,WeatherDisplay:10.37,2013-02-05 14:40:00,
2013-02-05 09:45:00,40.0,32.3,29.98,SSW,198,2.0,4.0,74,0.00,SCT,SCT,0.00,137.0,WeatherDisplay:10.37,2013-02-05 14:45:00,
2013-02-05 09:50:00,40.4,32.5,29.98,SSW,199,1.0,4.0,73,0.00,FEW,SCT,0.00,178.0,WeatherDisplay:10.37,2013-02-05 14:50:00,
2013-02-05 09:55:00,40.9,32.2,29.98,SSW,203,3.0,5.0,71,0.00,FEW,SCT,0.00,123.0,WeatherDisplay:10.37,2013-02-05 14:55:00,
2013-02-05 10:00:00,41.3,32.2,29.98,SSW,207,3.0,6.0,70,0.00,FEW,SCT,0.00,223.0,WeatherDisplay:10.37,2013-02-05 15:00:00,
2013-02-05 10:05:00,41.8,32.3,29.99,SW,214,1.0,6.0,69,0.00,CLR,SCT,0.00,236.0,WeatherDisplay:10.37,2013-02-05 15:05:00,
2013-02-05 10:10:00,42.2,32.7,29.99,SW,220,1.0,6.0,69,0.00,CLR,SCT,0.00,183.0,WeatherDisplay:10.37,2013-02-05 15:10:00,
2013-02-05 10:15:00,42.5,32.7,29.98,SW,224,1.0,5.0,68,0.00,FEW,SCT,0.00,190.0,WeatherDisplay:10.37,2013-02-05 15:15:00,
2013-02-05 10:20:00,42.8,32.6,29.98,SW,224,2.0,5.0,67,0.00,FEW,SCT,0.00,199.0,WeatherDisplay:10.37,2013-02-05 15:20:00,
2013-02-05 10:25:00,43.1,32.9,29.98,SW,225,2.0,3.0,67,0.00,FEW,SCT,0.00,591.0,WeatherDisplay:10.37,2013-02-05 15:25:00,
2013-02-05 10:30:00,43.6,33.3,29.98,SW,225,1.0,4.0,67,0.00,CLR,SCT,0.00,657.0,WeatherDisplay:10.37,2013-02-05 15:30:00,
2013-02-05 10:35:00,44.3,34.0,29.98,SW,224,2.0,6.0,67,0.00,CLR,SCT,0.00,295.0,WeatherDisplay:10.37,2013-02-05 15:35:00,
2013-02-05 10:40:00,45.0,33.9,29.98,SW,223,1.0,5.0,65,0.00,CLR,SCT,0.00,735.0,WeatherDisplay:10.37,2013-02-05 15:40:00,
2013-02-05 10:45:00,45.8,33.5,29.98,SW,223,1.0,7.0,62,0.00,CLR,SCT,0.00,301.0,WeatherDisplay:10.37,2013-02-05 15:45:00,
2013-02-05 10:50:00,46.3,33.6,29.98,SW,223,1.0,6.0,61,0.00,CLR,SCT,0.00,246.0,WeatherDisplay:10.37,2013-02-05 15:50:00,
2013-02-05 10:55:00,46.8,34.1,29.98,SW,223,2.0,7.0,61,0.00,CLR,SCT,0.00,694.0,WeatherDisplay:10.37,2013-02-05 15:55:00,
2013-02-05 11:00:00,47.6,34.3,29.97,SW,223,3.0,5.0,60,0.00,CLR,SCT,0.00,629.0,WeatherDisplay:10.37,2013-02-05 16:00:00,
2013-02-05 11:05:00,48.1,34.0,29.97,SW,223,1.0,5.0,58,0.00,CLR,SCT,0.00,615.0,WeatherDisplay:10.37,2013-02-05 16:05:00,
2013-02-05 11:10:00,48.8,34.7,29.97,SW,223,1.0,5.0,58,0.00,CLR,SCT,0.00,631.0,WeatherDisplay:10.37,2013-02-05 16:10:00,
2013-02-05 11:15:00,49.4,33.9,29.97,SW,230,3.0,7.0,55,0.00,CLR,SCT,0.00,735.0,WeatherDisplay:10.37,2013-02-05 16:15:00,
2013-02-05 11:25:00,50.4,33.9,29.96,WSW,244,1.0,4.0,53,0.00,CLR,SCT,0.00,650.0,WeatherDisplay:10.37,2013-02-05 16:25:00,
2013-02-05 11:30:00,50.9,34.4,29.96,WSW,241,3.0,5.0,53,0.00,CLR,SCT,0.00,677.0,WeatherDisplay:10.37,2013-02-05 16:30:00,
2013-02-05 11:35:00,51.4,35.3,29.97,WSW,239,1.0,5.0,54,0.00,CLR,SCT,0.00,701.0,WeatherDisplay:10.37,2013-02-05 16:35:00,
2013-02-05 11:40:00,51.9,35.3,29.97,SW,235,2.0,5.0,53,0.00,CLR,SCT,0.00,793.0,WeatherDisplay:10.37,2013-02-05 16:40:00,
2013-02-05 11:45:00,52.6,34.9,29.96,SW,228,1.0,5.0,51,0.00,CLR,SCT,0.00,793.0,WeatherDisplay:10.37,2013-02-05 16:45:00,
2013-02-05 11:50:00,53.0,34.8,29.96,SW,235,1.0,9.0,50,0.00,CLR,SCT,0.00,759.0,WeatherDisplay:10.37,2013-02-05 16:50:00,
2013-02-05 11:55:00,53.3,34.6,29.96,WSW,242,2.0,4.0,49,0.00,CLR,SCT,0.00,345.0,WeatherDisplay:10.37,2013-02-05 16:55:00,
2013-02-05 12:00:00,53.5,33.7,29.96,WSW,239,1.0,5.0,47,0.00,SCT,SCT,0.00,338.0,WeatherDisplay:10.37,2013-02-05 17:00:00,
2013-02-05 12:05:00,53.7,35.0,29.96,WSW,238,1.0,3.0,49,0.00,FEW,SCT,0.00,540.0,WeatherDisplay:10.37,2013-02-05 17:05:00,
2013-02-05 12:10:00,53.9,34.1,29.96,WSW,238,2.0,6.0,47,0.00,CLR,SCT,0.00,687.0,WeatherDisplay:10.37,2013-02-05 17:10:00,
2013-02-05 12:15:00,54.2,35.0,29.95,WSW,238,1.0,5.0,48,0.00,CLR,SCT,0.00,698.0,WeatherDisplay:10.37,2013-02-05 17:15:00,
2013-02-05 12:20:00,54.6,34.8,29.96,WSW,242,3.0,6.0,47,0.00,CLR,SCT,0.00,729.0,WeatherDisplay:10.37,2013-02-05 17:20:00,
2013-02-05 12:25:00,55.0,34.6,29.95,WSW,248,2.0,7.0,46,0.00,CLR,SCT,0.00,737.0,WeatherDisplay:10.37,2013-02-05 17:25:00,
2013-02-05 12:30:00,55.4,34.9,29.94,WSW,245,5.0,7.0,46,0.00,CLR,SCT,0.00,617.0,WeatherDisplay:10.37,2013-02-05 17:30:00,
2013-02-05 12:40:00,55.9,34.3,29.94,SW,235,2.0,5.0,44,0.00,FEW,SCT,0.00,334.0,WeatherDisplay:10.37,2013-02-05 17:40:00,
2013-02-05 12:45:00,55.9,34.3,29.94,WSW,245,5.0,8.0,44,0.00,SCT,SCT,0.00,334.0,WeatherDisplay:10.37,2013-02-05 17:45:00,
2013-02-05 12:50:00,55.8,33.6,29.94,West,266,3.0,7.0,43,0.00,SCT,SCT,0.00,599.0,WeatherDisplay:10.37,2013-02-05 17:50:00,
2013-02-05 12:55:00,56.0,35.5,29.94,West,268,2.0,6.0,46,0.00,FEW,SCT,0.00,534.0,WeatherDisplay:10.37,2013-02-05 17:55:00,
2013-02-05 13:05:00,56.4,35.3,29.93,West,263,2.0,8.0,45,0.00,CLR,SCT,0.00,819.0,WeatherDisplay:10.37,2013-02-05 18:05:00,
2013-02-05 13:10:00,57.0,35.2,29.93,WNW,291,2.0,13.0,44,0.00,CLR,SCT,0.00,596.0,WeatherDisplay:10.37,2013-02-05 18:10:00,
2013-02-05 13:15:00,57.3,35.6,29.93,West,262,6.0,13.0,44,0.00,CLR,SCT,0.00,831.0,WeatherDisplay:10.37,2013-02-05 18:15:00,
2013-02-05 13:20:00,57.6,35.2,29.92,WSW,247,6.0,10.0,43,0.00,CLR,SCT,0.00,831.0,WeatherDisplay:10.37,2013-02-05 18:20:00,
2013-02-05 13:25:00,57.8,35.5,29.92,West,260,7.0,10.0,43,0.00,CLR,SCT,0.00,659.0,WeatherDisplay:10.37,2013-02-05 18:25:00,
2013-02-05 13:30:00,58.3,35.9,29.91,WSW,249,5.0,9.0,43,0.00,CLR,SCT,0.00,749.0,WeatherDisplay:10.37,2013-02-05 18:30:00,
2013-02-05 13:35:00,58.8,36.3,29.91,WSW,255,5.0,10.0,43,0.00,CLR,SCT,0.00,441.0,WeatherDisplay:10.37,2013-02-05 18:35:00,
2013-02-05 13:40:00,59.0,36.5,29.91,West,276,2.0,6.0,43,0.00,FEW,SCT,0.00,605.0,WeatherDisplay:10.37,2013-02-05 18:40:00,
2013-02-05 13:45:00,59.0,36.5,29.91,WSW,257,5.0,13.0,43,0.00,CLR,SCT,0.00,696.0,WeatherDisplay:10.37,2013-02-05 18:45:00,
2013-02-05 13:50:00,59.2,36.1,29.91,WSW,240,8.0,13.0,42,0.00,CLR,SCT,0.00,752.0,WeatherDisplay:10.37,2013-02-05 18:50:00,
2013-02-05 13:55:00,59.5,35.8,29.91,WSW,242,6.0,12.0,41,0.00,CLR,SCT,0.00,758.0,WeatherDisplay:10.37,2013-02-05 18:55:00,
2013-02-05 14:00:00,59.8,37.8,29.91,WSW,257,9.0,15.0,44,0.00,CLR,SCT,0.00,717.0,WeatherDisplay:10.37,2013-02-05 19:00:00,
2013-02-05 14:05:00,59.9,38.5,29.90,West,273,8.0,13.0,45,0.00,CLR,SCT,0.00,737.0,WeatherDisplay:10.37,2013-02-05 19:05:00,
2013-02-05 14:15:00,60.4,37.8,29.90,West,274,6.0,14.0,43,0.00,CLR,SCT,0.00,628.0,WeatherDisplay:10.37,2013-02-05 19:15:00,
2013-02-05 14:20:00,60.5,38.5,29.90,West,275,6.0,13.0,44,0.00,CLR,SCT,0.00,613.0,WeatherDisplay:10.37,2013-02-05 19:20:00,
2013-02-05 14:25:00,60.6,38.6,29.90,West,260,3.0,10.0,44,0.00,CLR,SCT,0.00,598.0,WeatherDisplay:10.37,2013-02-05 19:25:00,
2013-02-05 14:30:00,60.8,38.1,29.90,WSW,247,6.0,13.0,43,0.00,CLR,SCT,0.00,598.0,WeatherDisplay:10.37,2013-02-05 19:30:00,
2013-02-05 14:35:00,60.8,38.1,29.90,WSW,249,5.0,9.0,43,0.00,CLR,SCT,0.00,589.0,WeatherDisplay:10.37,2013-02-05 19:35:00,
2013-02-05 14:40:00,60.9,37.6,29.90,SW,229,5.0,9.0,42,0.00,CLR,SCT,0.00,536.0,WeatherDisplay:10.37,2013-02-05 19:40:00,
2013-02-05 14:45:00,61.0,37.7,29.90,SW,223,7.0,13.0,42,0.00,CLR,SCT,0.00,594.0,WeatherDisplay:10.37,2013-02-05 19:45:00,
2013-02-05 14:50:00,61.1,37.8,29.90,WSW,240,8.0,12.0,42,0.00,CLR,SCT,0.00,589.0,WeatherDisplay:10.37,2013-02-05 19:50:00,
2013-02-05 14:55:00,61.0,38.3,29.90,WSW,247,6.0,12.0,43,0.00,CLR,SCT,0.00,540.0,WeatherDisplay:10.37,2013-02-05 19:55:00,
2013-02-05 15:00:00,60.9,37.7,29.90,WSW,245,5.0,12.0,42,0.00,CLR,SCT,0.00,531.0,WeatherDisplay:10.37,2013-02-05 20:00:00,
2013-02-05 15:05:00,60.9,38.3,29.90,WSW,248,1.0,8.0,43,0.00,CLR,SCT,0.00,594.0,WeatherDisplay:10.37,2013-02-05 20:05:00,
2013-02-05 15:10:00,61.1,38.4,29.90,WSW,245,3.0,9.0,43,0.00,CLR,SCT,0.00,633.0,WeatherDisplay:10.37,2013-02-05 20:10:00,
2013-02-05 15:15:00,61.3,38.0,29.90,WSW,242,2.0,5.0,42,0.00,CLR,SCT,0.00,563.0,WeatherDisplay:10.37,2013-02-05 20:15:00,
2013-02-05 15:20:00,61.5,39.4,29.90,WSW,242,0.0,1.0,44,0.00,CLR,SCT,0.00,596.0,WeatherDisplay:10.37,2013-02-05 20:20:00,
2013-02-05 15:25:00,62.0,38.6,29.90,WSW,243,1.0,4.0,42,0.00,CLR,SCT,0.00,515.0,WeatherDisplay:10.37,2013-02-05 20:25:00,
2013-02-05 15:30:00,62.3,38.3,29.90,SW,230,5.0,10.0,41,0.00,CLR,SCT,0.00,503.0,WeatherDisplay:10.37,2013-02-05 20:30:00,
2013-02-05 15:35:00,62.5,38.5,29.90,West,259,1.0,9.0,41,0.00,CLR,SCT,0.00,513.0,WeatherDisplay:10.37,2013-02-05 20:35:00,
2013-02-05 15:40:00,62.5,38.5,29.90,West,259,5.0,7.0,41,0.00,CLR,SCT,0.00,445.0,WeatherDisplay:10.37,2013-02-05 20:40:00,
2013-02-05 15:45:00,62.6,38.6,29.90,SSW,199,2.0,4.0,41,0.00,CLR,SCT,0.00,436.0,WeatherDisplay:10.37,2013-02-05 20:45:00,
2013-02-05 15:50:00,62.8,38.7,29.90,SW,231,5.0,12.0,41,0.00,CLR,SCT,0.00,415.0,WeatherDisplay:10.37,2013-02-05 20:50:00,
2013-02-05 15:55:00,62.7,38.0,29.90,SW,217,3.0,9.0,40,0.00,CLR,SCT,0.00,422.0,WeatherDisplay:10.37,2013-02-05 20:55:00,
2013-02-05 16:00:00,62.6,37.9,29.90,SSW,207,2.0,12.0,40,0.00,CLR,SCT,0.00,413.0,WeatherDisplay:10.37,2013-02-05 21:00:00,
2013-02-05 16:05:00,62.6,38.6,29.90,SW,228,2.0,8.0,41,0.00,CLR,SCT,0.00,383.0,WeatherDisplay:10.37,2013-02-05 21:05:00,
2013-02-05 16:10:00,62.7,38.0,29.90,WSW,237,2.0,4.0,40,0.00,CLR,SCT,0.00,353.0,WeatherDisplay:10.37,2013-02-05 21:10:00,
2013-02-05 16:15:00,62.8,38.1,29.90,WSW,242,3.0,9.0,40,0.00,FEW,SCT,0.00,345.0,WeatherDisplay:10.37,2013-02-05 21:15:00,
2013-02-05 16:20:00,62.9,38.2,29.90,WSW,239,5.0,12.0,40,0.00,FEW,SCT,0.00,345.0,WeatherDisplay:10.37,2013-02-05 21:20:00,
2013-02-05 16:25:00,62.9,38.2,29.90,WSW,242,3.0,12.0,40,0.00,FEW,SCT,0.00,258.0,WeatherDisplay:10.37,2013-02-05 21:25:00,
2013-02-05 16:30:00,62.8,38.1,29.90,WSW,252,7.0,9.0,40,0.00,SCT,SCT,0.00,169.0,WeatherDisplay:10.37,2013-02-05 21:30:00,
2013-02-05 16:35:00,62.5,37.2,29.90,West,270,6.0,9.0,39,0.00,SCT,SCT,0.00,267.0,WeatherDisplay:10.37,2013-02-05 21:35:00,
2013-02-05 16:40:00,62.2,37.6,29.89,WNW,283,5.0,7.0,40,0.00,FEW,SCT,0.00,213.0,WeatherDisplay:10.37,2013-02-05 21:40:00,
2013-02-05 16:45:00,62.1,37.4,29.89,West,278,3.0,7.0,40,0.00,SCT,SCT,0.00,167.0,WeatherDisplay:10.37,2013-02-05 21:45:00,
2013-02-05 16:50:00,61.8,36.6,29.89,West,263,6.0,9.0,39,0.00,SCT,SCT,0.00,169.0,WeatherDisplay:10.37,2013-02-05 21:50:00,
2013-02-05 16:55:00,61.6,37.0,29.90,West,261,3.0,8.0,40,0.00,BKN,SCT,0.00,130.0,WeatherDisplay:10.37,2013-02-05 21:55:00,
2013-02-05 17:00:00,61.3,37.4,29.90,West,272,5.0,8.0,41,0.00,SCT,SCT,0.00,153.0,WeatherDisplay:10.37,2013-02-05 22:00:00,
2013-02-05 17:05:00,61.0,36.5,29.90,West,265,3.0,9.0,40,0.00,BKN,SCT,0.00,84.0,WeatherDisplay:10.37,2013-02-05 22:05:00,
2013-02-05 17:10:00,60.7,36.9,29.90,WSW,256,1.0,6.0,41,0.00,BKN,SCT,0.00,97.0,WeatherDisplay:10.37,2013-02-05 22:10:00,
2013-02-05 17:15:00,60.4,36.0,29.90,West,267,1.0,6.0,40,0.00,BKN,SCT,0.00,95.0,WeatherDisplay:10.37,2013-02-05 22:15:00,
2013-02-05 17:20:00,60.2,35.1,29.91,West,273,5.0,8.0,39,0.00,SCT,SCT,0.00,141.0,WeatherDisplay:10.37,2013-02-05 22:20:00,
2013-02-05 17:25:00,60.0,34.3,29.91,West,272,2.0,8.0,38,0.00,BKN,SCT,0.00,76.0,WeatherDisplay:10.37,2013-02-05 22:25:00,
2013-02-05 17:30:00,59.8,34.1,29.91,West,273,1.0,7.0,38,0.00,BKN,SCT,0.00,91.0,WeatherDisplay:10.37,2013-02-05 22:30:00,
2013-02-05 17:35:00,59.7,34.0,29.91,West,279,2.0,5.0,38,0.00,BKN,SCT,0.00,67.0,WeatherDisplay:10.37,2013-02-05 22:35:00,
2013-02-05 17:40:00,59.4,33.1,29.91,WNW,282,1.0,4.0,37,0.00,BKN,SCT,0.00,26.0,WeatherDisplay:10.37,2013-02-05 22:40:00,
2013-02-05 17:45:00,59.1,31.4,29.91,WNW,282,1.0,3.0,35,0.00,BKN,SCT,0.00,18.0,WeatherDisplay:10.37,2013-02-05 22:45:00,
2013-02-05 17:50:00,59.0,31.4,29.91,WNW,282,0.0,6.0,35,0.00,BKN,SCT,0.00,9.0,WeatherDisplay:10.37,2013-02-05 22:50:00,
2013-02-05 17:55:00,58.6,31.0,29.91,WNW,282,0.0,2.0,35,0.00,BKN,SCT,0.00,5.0,WeatherDisplay:10.37,2013-02-05 22:55:00,
2013-02-05 18:00:00,58.4,31.5,29.91,WNW,282,0.0,2.0,36,0.00,BKN,SCT,0.00,0.0,WeatherDisplay:10.37,2013-02-05 23:00:00,
2013-02-05 18:05:00,58.0,31.1,29.92,WNW,282,0.0,1.0,36,0.00,BKN,SCT,0.00,0.0,WeatherDisplay:10.37,2013-02-05 23:05:00,
2013-02-05 18:10:00,57.2,33.7,29.92,NW,312,2.0,7.0,41,0.00,BKN,SCT,0.00,0.0,WeatherDisplay:10.37,2013-02-05 23:10:00,
2013-02-05 18:15:00,56.1,34.5,29.92,NNW,330,1.0,7.0,44,0.00,BKN,SCT,0.00,0.0,WeatherDisplay:10.37,2013-02-05 23:15:00,
2013-02-05 18:20:00,55.3,34.8,29.92,NNW,338,2.0,5.0,46,0.00,BKN,SCT,0.00,0.0,WeatherDisplay:10.37,2013-02-05 23:20:00,
2013-02-05 18:25:00,54.6,34.7,29.92,NNW,339,2.0,4.0,47,0.00,BKN,SCT,0.00,0.0,WeatherDisplay:10.37,2013-02-05 23:25:00,
2013-02-05 18:30:00,54.1,34.8,29.92,NNW,340,1.0,3.0,48,0.00,BKN,SCT,0.00,0.0,WeatherDisplay:10.37,2013-02-05 23:30:00,
2013-02-05 18:35:00,53.6,34.4,29.92,NNW,340,1.0,3.0,48,0.00,BKN,SCT,0.00,0.0,WeatherDisplay:10.37,2013-02-05 23:35:00,
2013-02-05 18:40:00,53.1,34.4,29.92,NNW,340,1.0,4.0,49,0.00,BKN,SCT,0.00,0.0,WeatherDisplay:10.37,2013-02-05 23:40:00,
2013-02-05 18:45:00,52.8,34.2,29.92,NNW,340,1.0,3.0,49,0.00,BKN,SCT,0.00,0.0,WeatherDisplay:10.37,2013-02-05 23:45:00,
2013-02-05 18:50:00,52.7,34.0,29.93,NNW,340,0.0,2.0,49,0.00,BKN,SCT,0.00,0.0,WeatherDisplay:10.37,2013-02-05 23:50:00,
2013-02-05 19:00:00,52.1,34.0,29.93,NNW,340,0.0,2.0,50,0.00,BKN,SCT,0.00,0.0,WeatherDisplay:10.37,2013-02-06 00:00:00,
2013-02-05 19:05:00,51.7,33.7,29.93,NNW,340,0.0,0.0,50,0.00,BKN,SCT,0.00,0.0,WeatherDisplay:10.37,2013-02-06 00:05:00,
2013-02-05 19:10:00,51.3,33.8,29.94,NNW,340,0.0,0.0,51,0.00,BKN,SCT,0.00,0.0,WeatherDisplay:10.37,2013-02-06 00:10:00,
2013-02-05 19:15:00,50.6,33.6,29.94,NNW,340,0.0,1.0,52,0.00,BKN,SCT,0.00,0.0,WeatherDisplay:10.37,2013-02-06 00:15:00,
2013-02-05 19:20:00,49.3,33.8,29.94,NNW,340,1.0,2.0,55,0.00,BKN,SCT,0.00,0.0,WeatherDisplay:10.37,2013-02-06 00:20:00,
2013-02-05 19:25:00,47.9,33.8,29.94,NNW,340,1.0,2.0,58,0.00,BKN,SCT,0.00,0.0,WeatherDisplay:10.37,2013-02-06 00:25:00,
2013-02-05 19:30:00,47.1,33.1,29.94,NNW,340,0.0,1.0,58,0.00,BKN,SCT,0.00,0.0,WeatherDisplay:10.37,2013-02-06 00:30:00,
2013-02-05 19:35:00,46.9,33.3,29.94,NNW,340,0.0,1.0,59,0.00,BKN,SCT,0.00,0.0,WeatherDisplay:10.37,2013-02-06 00:35:00,
2013-02-05 19:40:00,46.6,33.4,29.94,NNW,340,0.0,1.0,60,0.00,BKN,SCT,0.00,0.0,WeatherDisplay:10.37,2013-02-06 00:40:00,
2013-02-05 19:45:00,46.3,32.7,29.94,NNW,340,0.0,1.0,59,0.00,BKN,SCT,0.00,0.0,WeatherDisplay:10.37,2013-02-06 00:45:00,
2013-02-05 19:50:00,46.0,32.9,29.95,NNW,340,0.0,0.0,60,0.00,BKN,SCT,0.00,0.0,WeatherDisplay:10.37,2013-02-06 00:50:00,
2013-02-05 19:55:00,45.5,32.8,29.95,NNW,340,0.0,0.0,61,0.00,BKN,SCT,0.00,0.0,WeatherDisplay:10.37,2013-02-06 00:55:00,
2013-02-05 20:00:00,45.0,32.8,29.95,NNW,340,0.0,1.0,62,0.00,BKN,SCT,0.00,0.0,WeatherDisplay:10.37,2013-02-06 01:00:00,
2013-02-05 20:10:00,44.0,33.0,29.95,NNW,340,0.0,0.0,65,0.00,BKN,SCT,0.00,0.0,WeatherDisplay:10.37,2013-02-06 01:10:00,
2013-02-05 20:20:00,43.4,32.8,29.95,NNW,340,0.0,0.0,66,0.00,BKN,SCT,0.00,0.0,WeatherDisplay:10.37,2013-02-06 01:20:00,
2013-02-05 20:25:00,43.2,32.6,29.95,NNW,340,0.0,0.0,66,0.00,BKN,SCT,0.00,0.0,WeatherDisplay:10.37,2013-02-06 01:25:00,
2013-02-05 20:30:00,42.9,32.3,29.96,NNW,340,0.0,0.0,66,0.00,BKN,SCT,0.00,0.0,WeatherDisplay:10.37,2013-02-06 01:30:00,
2013-02-05 20:35:00,42.6,32.4,29.96,NNW,340,0.0,0.0,67,0.00,BKN,SCT,0.00,0.0,WeatherDisplay:10.37,2013-02-06 01:35:00,
2013-02-05 20:40:00,42.3,32.1,29.96,NNW,340,0.0,0.0,67,0.00,BKN,SCT,0.00,0.0,WeatherDisplay:10.37,2013-02-06 01:40:00,
2013-02-05 20:45:00,41.9,32.1,29.96,NNW,340,0.0,1.0,68,0.00,BKN,SCT,0.00,0.0,WeatherDisplay:10.37,2013-02-06 01:45:00,
2013-02-05 20:55:00,41.3,32.3,29.97,NNW,340,0.0,0.0,70,0.00,BKN,SCT,0.00,0.0,WeatherDisplay:10.37,2013-02-06 01:55:00,
2013-02-05 21:00:00,41.1,32.0,29.97,NNW,340,0.0,1.0,70,0.00,BKN,SCT,0.00,0.0,WeatherDisplay:10.37,2013-02-06 02:00:00,
2013-02-05 21:05:00,40.5,31.5,29.97,NNW,340,0.0,2.0,70,0.00,BKN,SCT,0.00,0.0,WeatherDisplay:10.37,2013-02-06 02:05:00,
2013-02-05 21:10:00,40.3,31.6,29.97,NNW,340,0.0,1.0,71,0.00,BKN,SCT,0.00,0.0,WeatherDisplay:10.37,2013-02-06 02:10:00,
2013-02-05 21:15:00,40.2,31.5,29.97,NNW,340,0.0,0.0,71,0.00,BKN,SCT,0.00,0.0,WeatherDisplay:10.37,2013-02-06 02:15:00,
2013-02-05 21:25:00,39.8,31.1,29.97,NNW,340,0.0,0.0,71,0.00,BKN,SCT,0.00,0.0,WeatherDisplay:10.37,2013-02-06 02:25:00,
2013-02-05 21:35:00,39.3,31.0,29.97,NNW,340,0.0,0.0,72,0.00,BKN,SCT,0.00,0.0,WeatherDisplay:10.37,2013-02-06 02:35:00,
2013-02-05 21:40:00,39.1,30.8,29.98,NNW,340,0.0,1.0,72,0.00,BKN,SCT,0.00,0.0,WeatherDisplay:10.37,2013-02-06 02:40:00,
2013-02-05 21:45:00,38.8,30.9,29.98,NNW,340,0.0,0.0,73,0.00,BKN,SCT,0.00,0.0,WeatherDisplay:10.37,2013-02-06 02:45:00,
2013-02-05 21:50:00,38.5,30.9,29.98,NNW,340,0.0,0.0,74,0.00,BKN,SCT,0.00,0.0,WeatherDisplay:10.37,2013-02-06 02:50:00,
2013-02-05 21:55:00,38.3,30.7,29.98,NNW,340,0.0,0.0,74,0.00,BKN,SCT,0.00,0.0,WeatherDisplay:10.37,2013-02-06 02:55:00,
2013-02-05 22:00:00,38.0,30.5,29.98,NNW,340,0.0,0.0,74,0.00,BKN,SCT,0.00,0.0,WeatherDisplay:10.37,2013-02-06 03:00:00,
2013-02-05 22:05:00,37.8,30.3,29.97,NNW,340,0.0,1.0,74,0.00,BKN,SCT,0.00,0.0,WeatherDisplay:10.37,2013-02-06 03:05:00,
2013-02-05 22:10:00,37.5,30.3,29.98,NNW,340,0.0,4.0,75,0.00,BKN,SCT,0.00,0.0,WeatherDisplay:10.37,2013-02-06 03:10:00,
2013-02-05 22:20:00,37.1,30.2,29.98,NNW,340,0.0,2.0,76,0.00,BKN,SCT,0.00,0.0,WeatherDisplay:10.37,2013-02-06 03:20:00,
2013-02-05 22:25:00,36.9,30.1,29.98,NNW,340,0.0,0.0,76,0.00,BKN,SCT,0.00,0.0,WeatherDisplay:10.37,2013-02-06 03:25:00,
2013-02-05 22:30:00,36.6,29.8,29.98,NNW,340,0.0,1.0,76,0.00,BKN,SCT,0.00,0.0,WeatherDisplay:10.37,2013-02-06 03:30:00,
2013-02-05 22:40:00,36.2,29.7,29.98,NNW,340,0.0,0.0,77,0.00,BKN,SCT,0.00,0.0,WeatherDisplay:10.37,2013-02-06 03:40:00,
2013-02-05 22:50:00,35.7,29.6,29.98,NNW,340,0.0,0.0,78,0.00,BKN,SCT,0.00,0.0,WeatherDisplay:10.37,2013-02-06 03:50:00,
2013-02-05 22:55:00,35.5,29.3,29.98,NNW,340,0.0,0.0,78,0.00,BKN,SCT,0.00,0.0,WeatherDisplay:10.37,2013-02-06 03:55:00,
2013-02-05 23:00:00,35.4,29.2,29.98,NNW,340,0.0,0.0,78,0.00,BKN,SCT,0.00,0.0,WeatherDisplay:10.37,2013-02-06 04:00:00,
2013-02-05 23:05:00,35.2,29.3,29.98,NNW,340,0.0,0.0,79,0.00,BKN,SCT,0.00,0.0,WeatherDisplay:10.37,2013-02-06 04:05:00,
2013-02-05 23:10:00,35.1,29.2,29.98,NNW,340,0.0,0.0,79,0.00,BKN,SCT,0.00,0.0,WeatherDisplay:10.37,2013-02-06 04:10:00,
2013-02-05 23:15:00,34.9,29.0,29.98,NNW,340,0.0,0.0,79,0.00,BKN,SCT,0.00,0.0,WeatherDisplay:10.37,2013-02-06 04:15:00,
2013-02-05 23:20:00,34.7,28.9,29.98,NNW,340,0.0,2.0,79,0.00,BKN,SCT,0.00,0.0,WeatherDisplay:10.37,2013-02-06 04:20:00,
2013-02-05 23:25:00,34.5,28.9,29.98,NNW,340,0.0,3.0,80,0.00,BKN,SCT,0.00,0.0,WeatherDisplay:10.37,2013-02-06 04:25:00,
2013-02-05 23:30:00,34.4,28.9,29.99,NNW,340,1.0,2.0,80,0.00,BKN,SCT,0.00,0.0,WeatherDisplay:10.37,2013-02-06 04:30:00,
2013-02-05 23:35:00,34.2,29.0,29.98,NNW,340,0.0,1.0,81,0.00,BKN,SCT,0.00,0.0,WeatherDisplay:10.37,2013-02-06 04:35:00,
2013-02-05 23:40:00,34.1,28.9,29.99,NNW,340,0.0,0.0,81,0.00,BKN,SCT,0.00,0.0,WeatherDisplay:10.37,2013-02-06 04:40:00,
2013-02-05 23:45:00,33.9,28.7,29.98,NNW,340,0.0,1.0,81,0.00,BKN,SCT,0.00,0.0,WeatherDisplay:10.37,2013-02-06 04:45:00,
2013-02-05 23:50:00,33.7,28.5,29.98,NNW,340,0.0,1.0,81,0.00,BKN,SCT,0.00,0.0,WeatherDisplay:10.37,2013-02-06 04:50:00,
2013-02-05 23:55:00,33.5,28.6,29.99,NNW,340,0.0,2.0,82,0.00,BKN,SCT,0.00,0.0,WeatherDisplay:10.37,2013-02-06 04:55:00,